Location: *
(49.9853°N, 3.5569°E)
Time: 22:00:28
(UTC+00:00)

RESURS DK-1 - Pass Details

Date: 22 September 2019
Orbit: 558 x 561 km, 69.9° (Epoch: 18 October)

Event Time Altitude Azimuth Distance (km) Brightness Sun altitude
Rises 20:58:40 0° 320° (NW) 2,756 7.1 -29.4°
Reaches altitude 10° 21:01:09 10° 307° (NW) 1,855 5.9 -29.7°
Enters shadow 21:03:41 23° 271° (W) 1,215 4.4 -30.0°
